#timestamp,LO_Frequency,Hit,StdDev 
1592931615.2,286047003.0,N
1592931635.0,286047005.9,N
1592931635.9,286047005.9,N
1592931655.8,286047007.4,Y
1592931675.6,286046999.7,P
1592931695.5,286046999.5,N
1592931715.3,286046994.7,N
1592931735.1,286046996.9,N
1592931755.9,286046998.4,N
1592931775.7,286047005.4,N
1592931795.6,286047007.8,N
1592931815.4,286047013.4,Y
1592931835.2,286047013.9,P
1592931855.1,286047016.1,N
1592931856.0,286047016.1,N
1592931875.8,286047021.4,Y
1592931895.7,286047010.2,P
1592931915.5,286047006.6,P
1592931935.3,286047012.4,P
1592931955.2,286047014.8,Y
1592931975.0,286047006.5,P
1592931975.9,286047006.5,P
1592931995.7,286047010.7,P
1592932015.6,286047009.6,Y
1592932035.4,286047001.9,P
1592932055.3,286047005.4,N
1592932075.1,286047000.6,N
1592932076.0,286047000.6,N
1592932095.8,286047001.0,N
1592932115.7,286047001.3,N
1592932135.5,286047007.5,N
1592932155.3,286047010.9,Y
1592932175.2,286047007.3,P
1592932195.0,286047005.4,N
1592932195.9,286047005.4,P
1592932215.8,286047007.6,Y
1592932235.6,286046996.8,P
1592932255.4,286046999.6,N
1592932275.3,286047001.8,N
1592932295.1,286047006.4,N
1592932315.9,286047010.1,N
1592932335.7,286047007.0,N
1592932355.5,286047003.3,N
1592932375.4,286047006.4,N
1592932395.2,286047010.4,N
1592932415.0,286047012.5,Y
1592932415.9,286047012.5,P
1592932435.8,286047012.2,P
1592932455.6,286047014.8,P
1592932475.5,286047017.0,Y
1592932495.3,286046999.9,P
1592932515.1,286047003.9,N
1592932535.9,286047001.4,N
1592932555.7,286046998.6,N
1592932575.5,286046997.2,N
1592932595.4,286046997.1,N
1592932615.2,286046998.2,N
1592932635.0,286047000.5,N
1592932636.0,286047000.5,N
1592932655.8,286046999.8,N
1592932675.6,286046996.8,N
1592932695.5,286046994.4,N
1592932715.3,286046993.4,N
1592932735.1,286047001.2,N
1592932755.9,286047000.6,N
1592932775.7,286046998.5,N
1592932795.5,286046996.7,N
1592932815.4,286046999.8,N
1592932835.2,286047000.1,N
1592932855.1,286047001.3,N
1592932856.0,286047001.3,N
1592932875.8,286046998.1,N
1592932895.6,286046999.3,N
1592932915.5,286046997.0,N
1592932935.3,286046999.6,N
1592932955.1,286046997.3,N
1592932975.9,286046998.5,N
1592932995.7,286046999.9,N
1592933015.6,286047001.1,N
1592933035.4,286047002.4,N
1592933055.2,286047004.2,N
1592933075.1,286047005.0,N
1592933076.0,286047005.0,N
1592933095.8,286047005.1,N
1592933115.6,286047008.9,Y
1592933135.5,286047008.3,P
1592933155.3,286047007.5,N
1592933175.2,286047002.8,N
1592933195.9,286047007.0,N
1592933215.7,286047008.5,N
1592933235.6,286047005.9,N
1592933255.4,286047002.6,N
1592933275.2,286047000.5,N
1592933295.1,286046998.4,N
1592933296.0,286046998.4,N
1592933315.8,286046999.5,N
1592933335.7,286046999.3,N
1592933355.5,286046999.0,N
1592933375.3,286046999.0,N
1592933395.2,286046998.0,N
1592933415.0,286046993.6,N
1592933415.9,286046993.6,N
1592933435.7,286046993.5,N
1592933455.6,286046994.0,N
1592933475.4,286046994.1,N
1592933495.3,286046996.1,N
1592933515.1,286046995.9,N
1592933516.0,286046995.9,N
1592933535.8,286046994.4,N
1592933555.7,286046990.9,N
1592933575.5,286046987.5,N
1592933595.3,286046989.9,N
1592933615.2,286046987.8,N
1592933635.0,286046986.6,N
1592933635.9,286046986.6,N
1592933655.8,286046984.5,N
1592933675.6,286046982.9,N
1592933695.4,286046983.4,N
1592933715.3,286046982.6,N
1592933735.1,286046979.6,Y
1592933755.8,286046981.4,P
1592933775.7,286046981.6,N
1592933795.5,286046977.6,P
1592933815.4,286046976.3,Y
1592933835.2,286046989.4,P
1592933855.0,286046990.3,P
1592933855.9,286046990.3,P
1592933875.8,286046994.8,N
1592933895.6,286046993.3,N
1592933915.4,286046996.2,N
1592933935.3,286046995.1,N
1592933955.1,286046995.6,N
1592933975.9,286046995.8,N
1592933995.7,286046995.0,N
1592934015.5,286046993.5,N
1592934035.4,286046994.1,N
1592934055.2,286046994.1,N
1592934075.0,286046994.3,N
1592934075.9,286046994.3,N
1592934095.8,286046994.6,N
1592934115.6,286046995.5,N
1592934135.5,286046997.5,N
1592934155.3,286046995.9,N
1592934175.1,286046996.3,N
1592934195.9,286046996.2,N
1592934215.7,286046995.9,N
1592934235.5,286046994.2,N
1592934255.4,286046994.6,N
1592934275.2,286046991.4,Y
1592934295.1,286046995.9,P
1592934296.0,286046995.9,P
1592934315.8,286046995.0,P
1592934335.6,286046995.1,Y
1592934355.5,286047000.0,P
1592934375.3,286046998.8,N
1592934395.1,286046997.4,N
1592934415.9,286046996.7,N
1592934435.7,286046995.1,N
1592934455.6,286046995.8,N
1592934475.4,286046997.8,N
1592934495.2,286046997.4,N
1592934515.1,286046998.7,N
1592934516.0,286046998.7,N
1592934535.8,286047000.4,N
1592934555.6,286047001.9,N
1592934575.5,286047000.4,N
1592934595.3,286047000.0,N
1592934615.2,286047002.6,N
1592934635.9,286047001.7,N
1592934655.7,286047004.0,N
1592934675.6,286047001.7,N
1592934725.4,286047002.4,E
1592934735.4,286047000.8,N
1592934755.2,286046999.5,P
1592934775.0,286046998.7,N
1592934775.9,286046998.7,N
1592934795.8,286046998.1,N
1592934815.6,286047001.0,N
1592934835.5,286047000.3,N
1592934855.3,286047005.8,Y
1592934875.1,286047005.6,P
1592934895.9,286047004.8,N
1592934915.7,286047002.9,N
1592934935.5,286047005.6,N
1592934955.4,286047005.9,N
1592934975.2,286047001.3,N
1592934995.1,286047001.8,N
1592934996.0,286047001.8,N
1592935015.8,286047001.4,N
1592935035.6,286047003.6,N
1592935055.5,286047001.7,N
1592935075.3,286047002.6,N
1592935095.1,286047000.0,N
1592935115.9,286047002.8,N
1592935135.7,286047004.4,N
1592935155.6,286047005.5,N
1592935175.4,286047003.5,N
1592935195.2,286047002.8,N
